QPF
0.00 0.01 0.01 0.01 0.01 0.01 0.01 0.01 0.01 0.01 0.00 0.00 0.00 0.00 0.00 0.00 0.00 0.00 0.00 0.00 0.00 0.01 0.02 0.03 0.03 0.03 0.02 0.01 0.00 0.00 0.00 0.00 0.00 0.00 0.00 0.00 0.00 0.00 0.00 0.00 0.00 0.00 0.01
0.00 0.01 0.01 0.01 0.01 0.01 0.01 0.01 0.01 0.01 0.00 0.00 0.00 0.00 0.00 0.00 0.00 0.00 0.00 0.00 0.01 0.02 0.04 0.04 0.04 0.04 0.03 0.01 0.00 0.00 0.00 0.00 0.00 0.00 0.00 0.00 0.00 0.00 0.00 0.00 0.00 0.00 0.00
0.00 0.01 0.01 0.01 0.01 0.01 0.01 0.01 0.01 0.00 0.00 0.00 0.00 0.00 0.00 0.00 0.00 0.00 0.01 0.01 0.01 0.03 0.04 0.05 0.05 0.04 0.03 0.01 0.00 0.00 0.00 0.00 0.00 0.00 0.00 0.00 0.00 0.00 0.00 0.00 0.00 0.00 0.00
0.00 0.00 0.01 0.01 0.01 0.01 0.01 0.00 0.00 0.00 0.00 0.00 0.00 0.00 0.00 0.00 0.00 0.00 0.01 0.01 0.02 0.03 0.04 0.04 0.04 0.03 0.02 0.01 0.00 0.00 0.00 0.00 0.00 0.00 0.00 0.00 0.00 0.00 0.00 0.00 0.00 0.00 0.00
0.00 0.00 0.01 0.01 0.01 0.01 0.00 0.00 0.00 0.00 0.00 0.00 0.00 0.00 0.00 0.00 0.00 0.00 0.00 0.01 0.02 0.02 0.02 0.02 0.02 0.01 0.00 0.00 0.00 0.00 0.00 0.00 0.00 0.00 0.00 0.00 0.00 0.01 0.01 0.01 0.01 0.01 0.01
0.00 0.00 0.01 0.01 0.01 0.00 0.00 0.00 0.00 0.00 0.00 0.00 0.00 0.00 0.00 0.00 0.00 0.00 0.00 0.00 0.01 0.01 0.01 0.01 0.00 0.00 0.00 0.00 0.00 0.00 0.00 0.00 0.00 0.00 0.00 0.00 0.00 0.02 0.03 0.02 0.02 0.02 0.02
0.00 0.00 0.00 0.01 0.00 0.00 0.00 0.00 0.00 0.00 0.00 0.00 0.00 0.00 0.00 0.00 0.00 0.00 0.00 0.00 0.00 0.00 0.00 0.00 0.00 0.00 0.00 0.00 0.00 0.00 0.00 0.00 0.00 0.00 0.00 0.00 0.01 0.02 0.02 0.02 0.02 0.02 0.03
0.00 0.00 0.00 0.01 0.00 0.00 0.00 0.00 0.00 0.00 0.00 0.00 0.00 0.00 0.00 0.00 0.00 0.00 0.00 0.00 0.00 0.00 0.00 0.00 0.00 0.00 0.00 0.00 0.00 0.00 0.00 0.00 0.00 0.00 0.00 0.00 0.01 0.01 0.01 0.01 0.02 0.02 0.02
0.00 0.00 0.00 0.00 0.00 0.00 0.00 0.00 0.00 0.00 0.00 0.00 0.00 0.00 0.00 0.00 0.00 0.00 0.00 0.00 0.00 0.00 0.00 0.00 0.00 0.00 0.00 0.00 0.00 0.00 0.00 0.00 0.00 0.00 0.00 0.00 0.01 0.02 0.01 0.01 0.01 0.01 0.01
0.00 0.00 0.00 0.00 0.00 0.00 0.00 0.00 0.00 0.00 0.00 0.00 0.00 0.00 0.00 0.00 0.00 0.00 0.00 0.00 0.00 0.00 0.00 0.00 0.00 0.00 0.00 0.00 0.00 0.00 0.00 0.00 0.00 0.00 0.00 0.00 0.01 0.01 0.01 0.01 0.00 0.00 0.00
0.01 0.01 0.00 0.00 0.00 0.00 0.00 0.00 0.00 0.00 0.00 0.00 0.00 0.00 0.00 0.00 0.00 0.00 0.00 0.00 0.00 0.00 0.00 0.00 0.00 0.00 0.00 0.00 0.00 0.00 0.00 0.00 0.00 0.00 0.00 0.00 0.01 0.01 0.00 0.00 0.00 0.00 0.00
0.01 0.01 0.00 0.00 0.00 0.00 0.00 0.00 0.00 0.00 0.00 0.00 0.00 0.00 0.00 0.00 0.00 0.00 0.00 0.00 0.00 0.00 0.00 0.00 0.00 0.00 0.00 0.00 0.00 0.00 0.00 0.00 0.00 0.00 0.00 0.00 0.01 0.00 0.00 0.00 0.00 0.00 0.00
0.01 0.01 0.00 0.00 0.00 0.00 0.00 0.00 0.00 0.00 0.00 0.00 0.00 0.00 0.00 0.00 0.00 0.00 0.00 0.00 0.00 0.00 0.00 0.00 0.00 0.00 0.00 0.00 0.00 0.00 0.00 0.00 0.00 0.00 0.00 0.00 0.00 0.00 0.00 0.00 0.00 0.00 0.00
0.00 0.00 0.00 0.00 0.00 0.00 0.00 0.00 0.00 0.00 0.00 0.00 0.00 0.00 0.00 0.00 0.00 0.00 0.00 0.00 0.00 0.00 0.00 0.00 0.00 0.00 0.00 0.00 0.00 0.00 0.00 0.00 0.00 0.00 0.00 0.00 0.00 0.00 0.00 0.00 0.00 0.00 0.00
0.00 0.00 0.00 0.00 0.00 0.00 0.00 0.00 0.00 0.00 0.00 0.00 0.00 0.00 0.00 0.00 0.00 0.00 0.00 0.00 0.00 0.00 0.00 0.00 0.00 0.00 0.00 0.00 0.00 0.00 0.00 0.00 0.00 0.00 0.00 0.00 0.00 0.00 0.00 0.00 0.00 0.00 0.00
0.00 0.00 0.00 0.01 0.01 0.00 0.00 0.00 0.00 0.00 0.00 0.00 0.00 0.00 0.00 0.00 0.00 0.00 0.00 0.00 0.00 0.00 0.00 0.00 0.00 0.00 0.00 0.00 0.00 0.00 0.00 0.00 0.00 0.00 0.00 0.00 0.00 0.00 0.00 0.00 0.00 0.00 0.00
0.01 0.01 0.01 0.01 0.01 0.01 0.00 0.01 0.01 0.01 0.00 0.00 0.00 0.00 0.00 0.00 0.00 0.00 0.00 0.00 0.00 0.00 0.00 0.00 0.00 0.00 0.00 0.00 0.00 0.00 0.00 0.00 0.00 0.00 0.00 0.00 0.00 0.00 0.00 0.00 0.00 0.00 0.00
0.00 0.00 0.00 0.01 0.01 0.01 0.02 0.02 0.02 0.02 0.01 0.01 0.01 0.00 0.00 0.00 0.00 0.00 0.00 0.00 0.00 0.00 0.00 0.00 0.00 0.00 0.00 0.00 0.00 0.00 0.00 0.00 0.00 0.00 0.00 0.00 0.00 0.00 0.00 0.00 0.00 0.00 0.00
0.00 0.00 0.00 0.00 0.01 0.02 0.03 0.03 0.04 0.05 0.04 0.04 0.03 0.01 0.01 0.01 0.00 0.01 0.00 0.00 0.00 0.00 0.00 0.00 0.00 0.00 0.00 0.00 0.00 0.00 0.00 0.00 0.00 0.00 0.00 0.00 0.00 0.00 0.00 0.00 0.00 0.00 0.00
0.00 0.00 0.00 0.00 0.01 0.02 0.04 0.05 0.05 0.04 0.04 0.04 0.02 0.02 0.02 0.02 0.01 0.01 0.01 0.01 0.00 0.00 0.00 0.00 0.00 0.00 0.00 0.00 0.00 0.00 0.00 0.00 0.00 0.00 0.00 0.00 0.00 0.00 0.00 0.00 0.00 0.00 0.00
0.00 0.00 0.00 0.00 0.00 0.02 0.03 0.03 0.02 0.02 0.02 0.02 0.03 0.05 0.05 0.05 0.04 0.03 0.02 0.02 0.01 0.01 0.00 0.00 0.00 0.00 0.00 0.00 0.00 0.00 0.00 0.00 0.00 0.00 0.00 0.00 0.00 0.00 0.00 0.00 0.00 0.00 0.00
0.00 0.00 0.00 0.00 0.00 0.00 0.00 0.01 0.01 0.02 0.02 0.03 0.06 0.07 0.07 0.07 0.07 0.05 0.03 0.03 0.02 0.01 0.00 0.01 0.01 0.00 0.00 0.00 0.00 0.00 0.00 0.00 0.00 0.00 0.00 0.00 0.00 0.00 0.00 0.00 0.00 0.00 0.00
0.00 0.00 0.00 0.00 0.00 0.00 0.01 0.02 0.04 0.05 0.05 0.04 0.03 0.03 0.04 0.07 0.08 0.07 0.07 0.05 0.04 0.02 0.02 0.02 0.02 0.01 0.01 0.01 0.01 0.01 0.01 0.00 0.00 0.00 0.00 0.00 0.00 0.00 0.00 0.00 0.00 0.00 0.00
0.00 0.00 0.00 0.00 0.00 0.00 0.01 0.01 0.02 0.02 0.02 0.02 0.02 0.03 0.06 0.08 0.09 0.09 0.10 0.08 0.07 0.05 0.05 0.04 0.04 0.04 0.03 0.02 0.01 0.01 0.01 0.01 0.01 0.01 0.01 0.01 0.00 0.00 0.00 0.00 0.00 0.00 0.00
0.00 0.00 0.00 0.00 0.00 0.00 0.00 0.00 0.01 0.01 0.01 0.02 0.03 0.04 0.06 0.08 0.09 0.10 0.11 0.12 0.11 0.10 0.10 0.10 0.08 0.06 0.04 0.03 0.03 0.02 0.03 0.03 0.03 0.03 0.02 0.01 0.01 0.00 0.00 0.00 0.00 0.00 0.00
0.00 0.00 0.00 0.00 0.00 0.00 0.00 0.00 0.00 0.01 0.01 0.02 0.03 0.04 0.05 0.08 0.09 0.09 0.12 0.13 0.15 0.15 0.14 0.12 0.11 0.09 0.06 0.05 0.04 0.03 0.03 0.02 0.02 0.02 0.01 0.01 0.00 0.00 0.00 0.00 0.00 0.00 0.00
MSLP
1012.62 1012.40 1012.37 1012.52 1012.84 1013.25 1013.69 1014.11 1014.45 1014.71 1014.89 1015.05 1015.21 1015.41 1015.67 1015.96 1016.27 1016.56 1016.80 1016.97 1017.10 1017.19 1017.28 1017.40 1017.56 1017.77 1018.02 1018.26 1018.49 1018.67 1018.80 1018.89 1018.94 1018.98 1019.02 1019.07 1019.12 1019.16 1019.20 1019.21 1019.20 1019.19 1019.18
1012.40 1012.24 1012.26 1012.46 1012.80 1013.24 1013.71 1014.16 1014.54 1014.84 1015.07 1015.27 1015.47 1015.70 1015.96 1016.25 1016.53 1016.78 1016.98 1017.12 1017.22 1017.30 1017.39 1017.52 1017.70 1017.93 1018.18 1018.44 1018.66 1018.84 1018.97 1019.06 1019.11 1019.16 1019.21 1019.26 1019.31 1019.35 1019.37 1019.37 1019.36 1019.33 1019.32
1012.14 1012.07 1012.14 1012.39 1012.77 1013.24 1013.75 1014.23 1014.65 1014.99 1015.27 1015.52 1015.75 1015.99 1016.24 1016.50 1016.74 1016.94 1017.09 1017.19 1017.25 1017.32 1017.42 1017.56 1017.76 1018.01 1018.29 1018.56 1018.79 1018.98 1019.11 1019.21 1019.28 1019.33 1019.39 1019.45 1019.50 1019.54 1019.55 1019.53 1019.50 1019.47 1019.45
1011.93 1011.95 1012.10 1012.39 1012.81 1013.31 1013.84 1014.34 1014.78 1015.16 1015.47 1015.75 1016.00 1016.25 1016.49 1016.71 1016.90 1017.05 1017.14 1017.20 1017.24 1017.30 1017.41 1017.57 1017.80 1018.08 1018.38 1018.67 1018.92 1019.12 1019.27 1019.37 1019.46 1019.53 1019.59 1019.65 1019.69 1019.72 1019.71 1019.68 1019.64 1019.60 1019.58
1011.85 1011.96 1012.18 1012.52 1012.97 1013.48 1014.00 1014.50 1014.94 1015.33 1015.65 1015.94 1016.20 1016.45 1016.68 1016.88 1017.04 1017.14 1017.20 1017.23 1017.26 1017.32 1017.44 1017.63 1017.89 1018.20 1018.53 1018.83 1019.09 1019.30 1019.46 1019.58 1019.66 1019.74 1019.80 1019.85 1019.89 1019.89 1019.87 1019.82 1019.77 1019.72 1019.70
1011.93 1012.12 1012.40 1012.79 1013.24 1013.74 1014.23 1014.70 1015.11 1015.47 1015.79 1016.07 1016.34 1016.59 1016.83 1017.02 1017.17 1017.26 1017.30 1017.33 1017.36 1017.44 1017.58 1017.80 1018.08 1018.41 1018.75 1019.06 1019.33 1019.54 1019.69 1019.81 1019.89 1019.96 1020.02 1020.06 1020.07 1020.06 1020.02 1019.97 1019.91 1019.86 1019.85
1012.14 1012.40 1012.74 1013.15 1013.60 1014.06 1014.50 1014.91 1015.26 1015.57 1015.86 1016.14 1016.42 1016.69 1016.94 1017.16 1017.32 1017.43 1017.50 1017.54 1017.59 1017.69 1017.85 1018.09 1018.39 1018.72 1019.05 1019.36 1019.61 1019.80 1019.94 1020.04 1020.12 1020.17 1020.22 1020.24 1020.25 1020.23 1020.18 1020.12 1020.07 1020.04 1020.04
1012.43 1012.74 1013.12 1013.54 1013.97 1014.39 1014.77 1015.09 1015.37 1015.63 1015.89 1016.16 1016.45 1016.76 1017.05 1017.31 1017.53 1017.68 1017.78 1017.86 1017.94 1018.06 1018.24 1018.48 1018.78 1019.09 1019.41 1019.68 1019.90 1020.07 1020.18 1020.25 1020.31 1020.35 1020.39 1020.41 1020.41 1020.39 1020.35 1020.31 1020.27 1020.27 1020.30
1012.70 1013.06 1013.46 1013.89 1014.30 1014.66 1014.97 1015.23 1015.44 1015.65 1015.88 1016.15 1016.47 1016.82 1017.17 1017.49 1017.76 1017.97 1018.12 1018.24 1018.35 1018.49 1018.67 1018.91 1019.18 1019.47 1019.75 1019.99 1020.16 1020.29 1020.37 1020.42 1020.46 1020.49 1020.52 1020.55 1020.57 1020.57 1020.55 1020.53 1020.53 1020.56 1020.62
1012.89 1013.27 1013.70 1014.13 1014.52 1014.85 1015.11 1015.30 1015.47 1015.64 1015.86 1016.14 1016.49 1016.89 1017.29 1017.68 1018.01 1018.27 1018.46 1018.61 1018.74 1018.89 1019.07 1019.29 1019.54 1019.80 1020.04 1020.23 1020.37 1020.46 1020.51 1020.54 1020.56 1020.59 1020.64 1020.69 1020.73 1020.76 1020.78 1020.81 1020.84 1020.90 1021.00
1012.96 1013.36 1013.80 1014.23 1014.62 1014.93 1015.15 1015.32 1015.47 1015.63 1015.85 1016.15 1016.53 1016.97 1017.42 1017.85 1018.22 1018.52 1018.74 1018.90 1019.05 1019.19 1019.37 1019.57 1019.80 1020.03 1020.24 1020.40 1020.51 1020.58 1020.61 1020.63 1020.65 1020.69 1020.75 1020.83 1020.91 1020.99 1021.06 1021.12 1021.19 1021.28 1021.39
1012.92 1013.32 1013.77 1014.21 1014.59 1014.90 1015.13 1015.29 1015.44 1015.61 1015.85 1016.17 1016.58 1017.05 1017.53 1017.98 1018.37 1018.68 1018.91 1019.08 1019.22 1019.37 1019.54 1019.74 1019.96 1020.18 1020.37 1020.53 1020.63 1020.68 1020.71 1020.73 1020.76 1020.81 1020.90 1021.01 1021.13 1021.25 1021.36 1021.46 1021.56 1021.67 1021.78
1012.81 1013.20 1013.64 1014.08 1014.47 1014.79 1015.03 1015.21 1015.38 1015.58 1015.85 1016.20 1016.62 1017.10 1017.59 1018.04 1018.42 1018.73 1018.95 1019.12 1019.26 1019.41 1019.59 1019.80 1020.04 1020.27 1020.48 1020.65 1020.77 1020.83 1020.87 1020.89 1020.93 1021.00 1021.11 1021.24 1021.39 1021.54 1021.68 1021.81 1021.92 1022.03 1022.13
1012.67 1013.03 1013.46 1013.88 1014.27 1014.60 1014.86 1015.08 1015.28 1015.52 1015.81 1016.18 1016.62 1017.09 1017.56 1018.00 1018.37 1018.65 1018.87 1019.04 1019.20 1019.37 1019.58 1019.83 1020.10 1020.37 1020.62 1020.83 1020.97 1021.06 1021.11 1021.15 1021.20 1021.27 1021.38 1021.53 1021.69 1021.85 1022.01 1022.14 1022.26 1022.35 1022.42
1012.52 1012.84 1013.23 1013.63 1014.01 1014.34 1014.62 1014.87 1015.11 1015.39 1015.71 1016.09 1016.53 1016.98 1017.43 1017.84 1018.19 1018.47 1018.69 1018.88 1019.07 1019.29 1019.55 1019.86 1020.19 1020.53 1020.83 1021.08 1021.27 1021.39 1021.46 1021.51 1021.55 1021.62 1021.72 1021.86 1022.01 1022.17 1022.32 1022.45 1022.55 1022.62 1022.66
1012.37 1012.63 1012.96 1013.31 1013.66 1013.99 1014.28 1014.56 1014.84 1015.14 1015.49 1015.88 1016.30 1016.74 1017.17 1017.56 1017.90 1018.18 1018.43 1018.67 1018.92 1019.20 1019.54 1019.92 1020.33 1020.74 1021.10 1021.41 1021.63 1021.79 1021.87 1021.92 1021.96 1022.02 1022.10 1022.21 1022.34 1022.49 1022.62 1022.73 1022.81 1022.85 1022.86
1012.18 1012.37 1012.63 1012.92 1013.23 1013.54 1013.84 1014.14 1014.44 1014.77 1015.13 1015.52 1015.93 1016.35 1016.76 1017.15 1017.50 1017.82 1018.12 1018.42 1018.75 1019.13 1019.55 1020.01 1020.50 1020.97 1021.39 1021.75 1022.01 1022.19 1022.29 1022.34 1022.37 1022.40 1022.46 1022.54 1022.65 1022.78 1022.89 1022.99 1023.05 1023.07 1023.05
1011.92 1012.04 1012.21 1012.44 1012.70 1012.99 1013.29 1013.60 1013.92 1014.27 1014.63 1015.01 1015.41 1015.82 1016.22 1016.61 1016.99 1017.36 1017.73 1018.12 1018.55 1019.02 1019.53 1020.08 1020.62 1021.15 1021.62 1022.01 1022.30 1022.50 1022.62 1022.68 1022.70 1022.73 1022.77 1022.83 1022.92 1023.03 1023.13 1023.22 1023.28 1023.29 1023.26
1011.57 1011.61 1011.71 1011.88 1012.10 1012.36 1012.66 1012.97 1013.31 1013.66 1014.01 1014.38 1014.77 1015.16 1015.56 1015.96 1016.38 1016.81 1017.26 1017.75 1018.27 1018.83 1019.42 1020.03 1020.63 1021.19 1021.69 1022.11 1022.42 1022.65 1022.79 1022.86 1022.90 1022.94 1022.98 1023.04 1023.13 1023.24 1023.35 1023.44 1023.50 1023.52 1023.50
1011.12 1011.10 1011.14 1011.26 1011.44 1011.69 1011.98 1012.30 1012.64 1012.98 1013.33 1013.67 1014.03 1014.40 1014.80 1015.22 1015.67 1016.16 1016.69 1017.26 1017.87 1018.50 1019.15 1019.80 1020.43 1021.01 1021.53 1021.97 1022.31 1022.57 1022.75 1022.86 1022.94 1023.01 1023.08 1023.17 1023.28 1023.41 1023.53 1023.65 1023.73 1023.77 1023.76
1010.63 1010.56 1010.56 1010.63 1010.80 1011.03 1011.32 1011.64 1011.97 1012.30 1012.62 1012.93 1013.25 1013.59 1013.97 1014.40 1014.88 1015.42 1016.01 1016.64 1017.31 1017.99 1018.68 1019.35 1019.99 1020.59 1021.12 1021.58 1021.96 1022.26 1022.50 1022.68 1022.82 1022.95 1023.08 1023.22 1023.37 1023.53 1023.69 1023.83 1023.94 1024.00 1024.01
1010.17 1010.06 1010.02 1010.07 1010.21 1010.44 1010.72 1011.03 1011.34 1011.64 1011.92 1012.19 1012.46 1012.77 1013.12 1013.54 1014.03 1014.60 1015.23 1015.91 1016.61 1017.32 1018.02 1018.70 1019.34 1019.94 1020.48 1020.97 1021.39 1021.76 1022.07 1022.34 1022.57 1022.78 1022.99 1023.19 1023.40 1023.60 1023.80 1023.98 1024.11 1024.20 1024.22
1009.81 1009.67 1009.60 1009.62 1009.74 1009.94 1010.21 1010.49 1010.77 1011.03 1011.26 1011.48 1011.70 1011.96 1012.28 1012.68 1013.17 1013.75 1014.39 1015.09 1015.81 1016.52 1017.22 1017.90 1018.54 1019.14 1019.70 1020.23 1020.71 1021.15 1021.56 1021.92 1022.25 1022.55 1022.84 1023.12 1023.38 1023.63 1023.87 1024.07 1024.23 1024.33 1024.36
1009.62 1009.44 1009.32 1009.31 1009.39 1009.56 1009.78 1010.02 1010.26 1010.47 1010.64 1010.80 1010.97 1011.19 1011.48 1011.86 1012.34 1012.92 1013.57 1014.27 1014.98 1015.70 1016.39 1017.06 1017.70 1018.31 1018.90 1019.47 1020.02 1020.54 1021.03 1021.49 1021.92 1022.31 1022.67 1023.01 1023.32 1023.62 1023.88 1024.11 1024.28 1024.39 1024.42
1009.60 1009.37 1009.21 1009.13 1009.16 1009.26 1009.42 1009.61 1009.78 1009.93 1010.05 1010.16 1010.29 1010.48 1010.74 1011.11 1011.59 1012.16 1012.82 1013.51 1014.23 1014.94 1015.63 1016.30 1016.94 1017.57 1018.19 1018.81 1019.42 1020.01 1020.58 1021.12 1021.62 1022.08 1022.50 1022.89 1023.24 1023.56 1023.84 1024.08 1024.26 1024.37 1024.39
1009.74 1009.46 1009.22 1009.07 1009.01 1009.03 1009.11 1009.21 1009.32 1009.41 1009.48 1009.56 1009.66 1009.84 1010.10 1010.47 1010.96 1011.54 1012.20 1012.90 1013.62 1014.33 1015.03 1015.70 1016.36 1017.01 1017.66 1018.32 1018.98 1019.63 1020.26 1020.86 1021.41 1021.91 1022.36 1022.77 1023.13 1023.46 1023.75 1023.99 1024.17 1024.28 1024.30
Thickness
5761 5763 5761 5758 5755 5753 5751 5748 5746 5744 5743 5741 5740 5738 5736 5734 5733 5731 5730 5729 5728 5727 5727 5726 5724 5723 5722 5720 5719 5717 5716 5714 5713 5712 5711 5710 5710 5709 5708 5707 5707 5706 5706
5764 5760 5758 5755 5752 5749 5747 5745 5742 5740 5738 5737 5735 5733 5732 5730 5729 5727 5726 5725 5725 5724 5724 5722 5720 5718 5717 5715 5713 5712 5710 5709 5708 5707 5706 5705 5705 5704 5704 5703 5702 5702 5701
5761 5758 5754 5751 5749 5746 5743 5741 5738 5736 5734 5732 5731 5729 5727 5726 5725 5723 5723 5722 5721 5721 5720 5718 5716 5714 5712 5710 5708 5706 5705 5704 5703 5702 5701 5700 5700 5699 5699 5698 5698 5697 5697
5757 5754 5751 5748 5745 5742 5740 5737 5734 5732 5730 5728 5726 5725 5723 5722 5720 5719 5719 5718 5717 5716 5715 5713 5711 5709 5707 5705 5703 5701 5700 5698 5698 5697 5696 5695 5695 5695 5695 5694 5694 5693 5693
5752 5749 5747 5744 5741 5738 5736 5733 5731 5728 5726 5724 5722 5720 5718 5717 5716 5715 5714 5714 5713 5711 5709 5707 5705 5703 5701 5699 5697 5696 5694 5694 5693 5692 5691 5690 5690 5691 5690 5690 5689 5689 5688
5747 5745 5742 5739 5737 5734 5732 5730 5727 5724 5722 5720 5717 5716 5714 5713 5712 5710 5709 5708 5707 5705 5704 5701 5699 5697 5696 5694 5692 5691 5690 5689 5688 5687 5686 5685 5685 5686 5686 5685 5684 5684 5684
5741 5739 5737 5735 5732 5730 5728 5726 5723 5721 5718 5716 5714 5712 5710 5708 5707 5705 5703 5702 5701 5699 5697 5695 5693 5692 5690 5688 5687 5686 5685 5684 5682 5681 5680 5680 5680 5680 5680 5680 5679 5679 5678
5736 5734 5732 5730 5727 5725 5723 5721 5719 5717 5714 5712 5710 5708 5706 5704 5701 5699 5698 5696 5695 5693 5691 5690 5688 5686 5684 5683 5681 5680 5679 5678 5677 5675 5674 5674 5675 5675 5674 5673 5672 5672 5671
5731 5729 5727 5725 5723 5720 5718 5717 5715 5712 5710 5708 5706 5703 5701 5699 5696 5694 5692 5691 5689 5687 5686 5684 5682 5680 5678 5677 5675 5674 5673 5672 5671 5669 5669 5669 5669 5669 5668 5666 5665 5664 5663
5724 5723 5722 5721 5718 5716 5714 5712 5710 5708 5706 5704 5701 5699 5696 5694 5691 5689 5687 5685 5683 5682 5680 5678 5677 5675 5673 5672 5671 5669 5668 5667 5665 5664 5663 5663 5663 5662 5661 5659 5658 5656 5655
5718 5717 5717 5716 5714 5712 5711 5708 5706 5704 5702 5699 5697 5694 5691 5689 5686 5684 5682 5680 5678 5676 5674 5673 5671 5669 5668 5666 5665 5664 5663 5661 5659 5658 5658 5657 5657 5655 5653 5652 5650 5648 5647
5713 5713 5712 5711 5710 5708 5707 5704 5702 5700 5698 5695 5692 5690 5687 5684 5682 5680 5677 5675 5673 5671 5669 5668 5666 5664 5662 5660 5659 5658 5657 5655 5654 5652 5651 5651 5650 5648 5645 5644 5642 5640 5639
5710 5710 5710 5707 5706 5704 5703 5701 5699 5696 5694 5691 5689 5686 5683 5680 5677 5675 5673 5670 5668 5666 5664 5662 5660 5658 5657 5655 5653 5652 5650 5649 5647 5646 5645 5644 5642 5640 5638 5636 5634 5632 5631
5706 5706 5706 5704 5702 5700 5699 5697 5695 5693 5690 5687 5685 5682 5679 5676 5673 5671 5669 5666 5664 5662 5659 5657 5655 5653 5651 5649 5647 5645 5644 5642 5641 5639 5638 5637 5635 5633 5630 5628 5626 5624 5623
5702 5702 5702 5701 5698 5696 5694 5693 5691 5689 5687 5684 5682 5679 5677 5673 5670 5668 5665 5663 5660 5657 5654 5652 5649 5647 5645 5643 5641 5639 5637 5635 5634 5632 5631 5629 5627 5625 5622 5620 5618 5617 5615
5699 5699 5698 5697 5695 5693 5691 5690 5688 5686 5684 5681 5679 5677 5674 5672 5668 5665 5662 5659 5656 5653 5650 5647 5644 5642 5639 5636 5634 5632 5630 5628 5626 5624 5622 5621 5619 5617 5614 5612 5610 5608 5607
5695 5696 5695 5695 5693 5691 5689 5687 5686 5683 5681 5679 5677 5675 5672 5670 5666 5663 5660 5656 5653 5650 5646 5642 5639 5636 5632 5630 5627 5625 5623 5621 5619 5617 5615 5612 5610 5608 5606 5603 5601 5599 5598
5691 5692 5693 5692 5691 5689 5688 5686 5683 5681 5679 5678 5676 5673 5671 5668 5665 5661 5657 5654 5650 5646 5642 5637 5633 5629 5625 5623 5620 5617 5615 5613 5611 5609 5606 5604 5602 5599 5597 5594 5592 5590 5588
5686 5688 5689 5689 5690 5689 5687 5684 5682 5679 5678 5677 5674 5672 5670 5666 5663 5659 5655 5651 5647 5642 5637 5633 5628 5624 5619 5616 5613 5610 5608 5606 5603 5601 5598 5596 5593 5591 5588 5585 5583 5581 5579
5682 5683 5685 5687 5688 5688 5685 5681 5679 5676 5676 5674 5673 5671 5668 5665 5661 5657 5653 5648 5643 5638 5633 5628 5623 5618 5614 5610 5607 5602 5599 5598 5596 5593 5590 5588 5585 5582 5580 5577 5574 5572 5570
5676 5678 5680 5682 5684 5684 5681 5679 5677 5676 5676 5673 5672 5670 5666 5663 5660 5655 5651 5646 5640 5636 5631 5625 5618 5612 5607 5603 5598 5593 5591 5589 5587 5585 5583 5580 5577 5574 5571 5568 5565 5563 5561
5671 5673 5675 5677 5680 5681 5681 5681 5680 5678 5676 5675 5672 5668 5665 5661 5658 5653 5649 5644 5638 5633 5626 5621 5616 5609 5602 5599 5595 5589 5585 5581 5579 5577 5575 5572 5569 5566 5563 5560 5557 5554 5551
5663 5666 5670 5671 5674 5676 5677 5677 5674 5672 5670 5667 5666 5665 5663 5659 5655 5651 5647 5642 5637 5632 5626 5620 5616 5610 5600 5592 5591 5589 5583 5581 5573 5568 5565 5563 5561 5558 5554 5551 5548 5545 5542
5657 5659 5662 5665 5667 5669 5669 5669 5668 5667 5667 5668 5667 5664 5661 5656 5652 5648 5644 5640 5635 5630 5625 5619 5613 5608 5600 5590 5583 5580 5579 5577 5569 5562 5557 5554 5552 5549 5545 5542 5539 5536 5533
5649 5651 5653 5656 5658 5660 5660 5662 5662 5663 5664 5663 5660 5658 5655 5652 5648 5644 5640 5635 5630 5626 5621 5615 5608 5603 5599 5591 5582 5575 5569 5564 5562 5559 5553 5546 5543 5540 5536 5533 5529 5526 5523
5639 5641 5643 5646 5648 5650 5651 5652 5653 5655 5655 5652 5651 5650 5648 5644 5641 5637 5633 5629 5625 5620 5615 5609 5603 5597 5592 5587 5580 5574 5568 5561 5555 5551 5546 5538 5533 5529 5526 5523 5519 5515 5511